N84678 KSYR-KISP

Flight info

Callsign N84678
Flight time 0h 49m
Altitude VFR/175
Route
Aircraft SF50/L-VGD/C

Departure

Time 2026-04-28 15:55
Airport Syracuse Hancock International Airport (KSYR)

Arrival

Time 2026-04-28 16:45
Airport Long Island MacArthur Airport (KISP)
Time Latitude Longitude Altitude Speed Heading
2026-04-28 15:51 43.11309 -76.10820 418 ft 18 kts 358°
2026-04-28 15:51 43.11408 -76.10769 411 ft 15 kts 47°
2026-04-28 15:52 43.11508 -76.10746 411 ft 15 kts 357°
2026-04-28 15:52 43.11604 -76.10788 409 ft 17 kts 316°
2026-04-28 15:52 43.11692 -76.10911 406 ft 18 kts 314°
2026-04-28 15:52 43.11780 -76.11036 407 ft 18 kts 313°
2026-04-28 15:53 43.11869 -76.11165 407 ft 20 kts 314°
2026-04-28 15:53 43.11963 -76.11300 410 ft 19 kts 313°
2026-04-28 15:53 43.12051 -76.11361 408 ft 0 kts 39°
2026-04-28 15:55 43.12094 -76.11304 408 ft 16 kts 53°
2026-04-28 15:55 43.11935 -76.11019 408 ft 79 kts 133°
2026-04-28 15:55 43.11364 -76.10225 535 ft 148 kts 137°
2026-04-28 15:55 43.10610 -76.09147 1449 ft 157 kts 137°
2026-04-28 15:56 43.09844 -76.08174 2723 ft 143 kts 146°
2026-04-28 15:56 43.09139 -76.07236 3932 ft 140 kts 146°
2026-04-28 15:56 43.08436 -76.06293 4946 ft 149 kts 150°
2026-04-28 15:56 43.07559 -76.05160 5087 ft 193 kts 146°
2026-04-28 15:57 43.06562 -76.03781 5080 ft 215 kts 144°
2026-04-28 15:57 43.05473 -76.02278 5076 ft 227 kts 144°
2026-04-28 15:57 43.04387 -76.00788 5681 ft 209 kts 144°
2026-04-28 15:57 43.03414 -75.99478 6714 ft 184 kts 145°
2026-04-28 15:58 43.02560 -75.98308 7645 ft 168 kts 146°
2026-04-28 15:58 43.01707 -75.97177 8217 ft 174 kts 145°
2026-04-28 15:58 43.00838 -75.96006 8860 ft 177 kts 144°
2026-04-28 15:58 42.99956 -75.94813 9506 ft 179 kts 144°
2026-04-28 15:59 42.99057 -75.93610 10133 ft 182 kts 144°
2026-04-28 15:59 42.98460 -75.92802 10519 ft 183 kts 144°
2026-04-28 15:59 42.97266 -75.91185 11349 ft 182 kts 144°
2026-04-28 15:59 42.96361 -75.89968 11961 ft 183 kts 143°
2026-04-28 16:00 42.95456 -75.88748 12569 ft 183 kts 143°
2026-04-28 16:00 42.94557 -75.87538 13220 ft 179 kts 144°
2026-04-28 16:00 42.93669 -75.86342 13825 ft 179 kts 143°
2026-04-28 16:00 42.92775 -75.85141 14331 ft 182 kts 144°
2026-04-28 16:01 42.91862 -75.83916 14776 ft 186 kts 144°
2026-04-28 16:01 42.90928 -75.82660 15215 ft 191 kts 144°
2026-04-28 16:01 42.89972 -75.81378 15655 ft 195 kts 145°
2026-04-28 16:01 42.88997 -75.80067 16094 ft 198 kts 145°
2026-04-28 16:02 42.88002 -75.78732 16496 ft 203 kts 143°
2026-04-28 16:02 42.86978 -75.77355 16839 ft 210 kts 142°
2026-04-28 16:02 42.85920 -75.75940 17101 ft 220 kts 142°
2026-04-28 16:02 42.84776 -75.74416 17114 ft 239 kts 142°
2026-04-28 16:03 42.83576 -75.72804 17113 ft 251 kts 141°
2026-04-28 16:03 42.82313 -75.71104 17110 ft 259 kts 141°
2026-04-28 16:03 42.81014 -75.69364 17108 ft 264 kts 141°
2026-04-28 16:03 42.79690 -75.67598 17112 ft 269 kts 141°
2026-04-28 16:04 42.78346 -75.65803 17110 ft 273 kts 141°
2026-04-28 16:04 42.76981 -75.63978 17108 ft 276 kts 141°
2026-04-28 16:04 42.75609 -75.62145 17110 ft 278 kts 141°
2026-04-28 16:04 42.74221 -75.60294 17111 ft 280 kts 141°
2026-04-28 16:05 42.72823 -75.58432 17114 ft 282 kts 141°
2026-04-28 16:05 42.71411 -75.56554 17107 ft 284 kts 141°
2026-04-28 16:05 42.69993 -75.54666 17116 ft 286 kts 141°
2026-04-28 16:05 42.68564 -75.52763 17115 ft 289 kts 141°
2026-04-28 16:06 42.67120 -75.50845 17114 ft 291 kts 141°
2026-04-28 16:06 42.65668 -75.48916 17114 ft 293 kts 141°
2026-04-28 16:06 42.64204 -75.46973 17115 ft 296 kts 141°
2026-04-28 16:06 42.62746 -75.45041 17117 ft 297 kts 141°
2026-04-28 16:07 42.61263 -75.43074 17118 ft 298 kts 141°
2026-04-28 16:07 42.59782 -75.41104 17102 ft 297 kts 140°
2026-04-28 16:07 42.56819 -75.37194 17107 ft 296 kts 140°
2026-04-28 16:08 42.55343 -75.35241 17109 ft 296 kts 140°
2026-04-28 16:08 42.53867 -75.33291 17112 ft 296 kts 140°
2026-04-28 16:08 42.52392 -75.31342 17116 ft 296 kts 140°
2026-04-28 16:09 42.49437 -75.27448 17122 ft 296 kts 140°
2026-04-28 16:09 42.47960 -75.25504 17125 ft 296 kts 140°
2026-04-28 16:09 42.46484 -75.23560 17130 ft 296 kts 141°
2026-04-28 16:10 42.43521 -75.19667 17144 ft 297 kts 140°
2026-04-28 16:10 42.42040 -75.17719 17149 ft 297 kts 141°
2026-04-28 16:10 42.39069 -75.13821 17155 ft 298 kts 141°
2026-04-28 16:11 42.36099 -75.09928 17163 ft 297 kts 141°
2026-04-28 16:11 42.33135 -75.06054 17166 ft 298 kts 140°
2026-04-28 16:12 42.30173 -75.02179 17160 ft 295 kts 140°
2026-04-28 16:12 42.28701 -75.00260 17162 ft 293 kts 140°
2026-04-28 16:13 42.25762 -74.96430 17171 ft 294 kts 139°
2026-04-28 16:13 42.24291 -74.94510 17168 ft 294 kts 139°
2026-04-28 16:13 42.21344 -74.90677 17175 ft 294 kts 140°
2026-04-28 16:14 42.18396 -74.86846 17169 ft 294 kts 141°
2026-04-28 16:14 42.15451 -74.83026 17173 ft 294 kts 140°
2026-04-28 16:15 42.12507 -74.79205 17174 ft 293 kts 141°
2026-04-28 16:15 42.11032 -74.77306 17173 ft 293 kts 141°
2026-04-28 16:15 42.09583 -74.75428 17172 ft 293 kts 141°
2026-04-28 16:16 42.06639 -74.71620 17180 ft 294 kts 141°
2026-04-28 16:16 42.05161 -74.69717 17177 ft 294 kts 140°
2026-04-28 16:17 42.02205 -74.65890 17180 ft 294 kts 140°
2026-04-28 16:17 42.00727 -74.63993 17182 ft 293 kts 141°
2026-04-28 16:17 41.99247 -74.62098 17182 ft 294 kts 140°
2026-04-28 16:17 41.97773 -74.60193 17185 ft 294 kts 140°
2026-04-28 16:18 41.96290 -74.58285 17186 ft 296 kts 140°
2026-04-28 16:18 41.94800 -74.56371 17188 ft 296 kts 139°
2026-04-28 16:18 41.93311 -74.54459 17189 ft 297 kts 140°
2026-04-28 16:18 41.91818 -74.52543 17189 ft 297 kts 140°
2026-04-28 16:19 41.90337 -74.50645 17189 ft 298 kts 140°
2026-04-28 16:19 41.88839 -74.48723 17189 ft 298 kts 140°
2026-04-28 16:19 41.87337 -74.46803 17188 ft 298 kts 140°
2026-04-28 16:19 41.85837 -74.44882 17188 ft 298 kts 140°
2026-04-28 16:20 41.84335 -74.42960 17188 ft 298 kts 140°
2026-04-28 16:20 41.82833 -74.41041 17188 ft 298 kts 140°
2026-04-28 16:20 41.81333 -74.39127 17189 ft 298 kts 140°
2026-04-28 16:20 41.79827 -74.37203 17188 ft 298 kts 140°
2026-04-28 16:21 41.78326 -74.35288 17184 ft 298 kts 139°
2026-04-28 16:21 41.77333 -74.34020 17188 ft 298 kts 139°
2026-04-28 16:21 41.75829 -74.32108 17189 ft 298 kts 139°
2026-04-28 16:21 41.73820 -74.29549 17189 ft 298 kts 139°
2026-04-28 16:22 41.72825 -74.28283 17189 ft 297 kts 139°
2026-04-28 16:22 41.70835 -74.25754 17186 ft 297 kts 139°
2026-04-28 16:22 41.69820 -74.24464 17186 ft 298 kts 139°
2026-04-28 16:22 41.68317 -74.22557 17187 ft 298 kts 139°
2026-04-28 16:23 41.66814 -74.20650 17187 ft 298 kts 139°
2026-04-28 16:23 41.65311 -74.18743 17186 ft 298 kts 139°
2026-04-28 16:23 41.63827 -74.16860 17189 ft 298 kts 139°
2026-04-28 16:23 41.62321 -74.14955 17186 ft 298 kts 139°
2026-04-28 16:24 41.60815 -74.13051 17185 ft 298 kts 139°
2026-04-28 16:24 41.59309 -74.11145 17185 ft 298 kts 139°
2026-04-28 16:24 41.57805 -74.09247 17186 ft 297 kts 139°
2026-04-28 16:24 41.56302 -74.07348 17185 ft 297 kts 139°
2026-04-28 16:25 41.54799 -74.05451 17188 ft 297 kts 139°
2026-04-28 16:25 41.53297 -74.03557 17188 ft 297 kts 140°
2026-04-28 16:25 41.52303 -74.02304 17187 ft 297 kts 139°
2026-04-28 16:25 41.50335 -73.99820 17184 ft 272 kts 138°
2026-04-28 16:26 41.49024 -73.98167 16585 ft 259 kts 140°
2026-04-28 16:26 41.47663 -73.96467 15672 ft 267 kts 140°
2026-04-28 16:26 41.46359 -73.94821 15269 ft 253 kts 140°
2026-04-28 16:26 41.45078 -73.93212 14653 ft 253 kts 140°
2026-04-28 16:27 41.43802 -73.91611 14086 ft 252 kts 140°
2026-04-28 16:27 41.42547 -73.90037 13513 ft 249 kts 140°
2026-04-28 16:27 41.40048 -73.86904 12435 ft 244 kts 139°
2026-04-28 16:28 41.38815 -73.85358 11941 ft 242 kts 139°
2026-04-28 16:28 41.37595 -73.83830 11470 ft 240 kts 139°
2026-04-28 16:28 41.36382 -73.82314 11019 ft 237 kts 139°
2026-04-28 16:28 41.35187 -73.80817 10572 ft 235 kts 140°
2026-04-28 16:29 41.32823 -73.77876 9705 ft 230 kts 139°
2026-04-28 16:29 41.30537 -73.75003 8914 ft 221 kts 140°
2026-04-28 16:30 41.29437 -73.73633 8521 ft 218 kts 140°
2026-04-28 16:30 41.28332 -73.72257 8113 ft 217 kts 140°
2026-04-28 16:30 41.27236 -73.70889 7771 ft 214 kts 140°
2026-04-28 16:30 41.26158 -73.69546 7421 ft 212 kts 139°
2026-04-28 16:31 41.25087 -73.68215 7065 ft 210 kts 139°
2026-04-28 16:31 41.24027 -73.66895 6710 ft 208 kts 139°
2026-04-28 16:31 41.22977 -73.65587 6357 ft 206 kts 139°
2026-04-28 16:31 41.21927 -73.64286 5956 ft 207 kts 137°
2026-04-28 16:32 41.20877 -73.62982 5612 ft 206 kts 137°
2026-04-28 16:32 41.18804 -73.60405 4994 ft 202 kts 137°
2026-04-28 16:32 41.17782 -73.59135 4684 ft 200 kts 137°
2026-04-28 16:33 41.16759 -73.57867 4340 ft 201 kts 137°
2026-04-28 16:33 41.16081 -73.57025 4141 ft 201 kts 137°
2026-04-28 16:33 41.14718 -73.55334 3726 ft 200 kts 138°
2026-04-28 16:33 41.13714 -73.54088 3446 ft 200 kts 139°
2026-04-28 16:34 41.12685 -73.52815 3217 ft 196 kts 139°
2026-04-28 16:34 41.11727 -73.51626 3215 ft 187 kts 139°
2026-04-28 16:34 41.10790 -73.50473 3211 ft 181 kts 139°
2026-04-28 16:34 41.09884 -73.49349 3209 ft 176 kts 139°
2026-04-28 16:35 41.08991 -73.48247 3205 ft 177 kts 139°
2026-04-28 16:35 41.05874 -73.44399 3226 ft 201 kts 139°
2026-04-28 16:36 41.04842 -73.43117 3221 ft 201 kts 139°
2026-04-28 16:36 41.03813 -73.41852 3217 ft 202 kts 139°
2026-04-28 16:36 41.02788 -73.40588 3218 ft 201 kts 138°
2026-04-28 16:36 41.01767 -73.39329 3217 ft 201 kts 139°
2026-04-28 16:37 41.01435 -73.38920 3218 ft 201 kts 139°
2026-04-28 16:37 40.98717 -73.35573 3229 ft 201 kts 139°
2026-04-28 16:38 40.96662 -73.33046 3236 ft 204 kts 138°
2026-04-28 16:38 40.95625 -73.31769 3236 ft 203 kts 138°
2026-04-28 16:38 40.94608 -73.30519 3060 ft 192 kts 138°
2026-04-28 16:38 40.93610 -73.29296 2083 ft 201 kts 138°
2026-04-28 16:39 40.92593 -73.28051 1335 ft 196 kts 138°
2026-04-28 16:39 40.91635 -73.26873 1229 ft 187 kts 138°
2026-04-28 16:39 40.90657 -73.25680 1238 ft 194 kts 139°
2026-04-28 16:39 40.89691 -73.24499 1238 ft 181 kts 138°
2026-04-28 16:40 40.88804 -73.23395 1233 ft 167 kts 138°
2026-04-28 16:40 40.87991 -73.22401 1230 ft 153 kts 139°
2026-04-28 16:40 40.87230 -73.21472 1226 ft 146 kts 138°
2026-04-28 16:40 40.86561 -73.20455 1187 ft 152 kts 116°
2026-04-28 16:41 40.86440 -73.19111 1252 ft 149 kts 94°
2026-04-28 16:41 40.86219 -73.17770 1244 ft 150 kts 108°
2026-04-28 16:41 40.85933 -73.16436 1250 ft 152 kts 107°
2026-04-28 16:41 40.85652 -73.15125 1229 ft 141 kts 107°
2026-04-28 16:42 40.85414 -73.13987 1224 ft 122 kts 108°
2026-04-28 16:42 40.85187 -73.12886 1228 ft 127 kts 107°
2026-04-28 16:42 40.84960 -73.11749 1229 ft 129 kts 108°
2026-04-28 16:42 40.84680 -73.10670 1333 ft 120 kts 117°
2026-04-28 16:43 40.84200 -73.09790 1359 ft 121 kts 134°
2026-04-28 16:43 40.83558 -73.09077 1344 ft 123 kts 149°
2026-04-28 16:43 40.82857 -73.08617 1348 ft 101 kts 161°
2026-04-28 16:43 40.82160 -73.08461 996 ft 96 kts 178°
2026-04-28 16:44 40.81507 -73.08526 601 ft 91 kts 192°
2026-04-28 16:44 40.80922 -73.08786 354 ft 89 kts 202°
2026-04-28 16:44 40.80393 -73.09251 178 ft 96 kts 218°
2026-04-28 16:44 40.79973 -73.09793 90 ft 70 kts 221°
2026-04-28 16:45 40.79810 -73.10000 88 ft 17 kts 225°
2026-04-28 16:45 40.79729 -73.10107 90 ft 17 kts 225°
2026-04-28 16:45 40.79685 -73.10218 90 ft 12 kts 289°
2026-04-28 16:45 40.79711 -73.10267 90 ft 0 kts 313°
2026-04-28 16:46 40.79717 -73.10276 90 ft 6 kts 315°
2026-04-28 16:46 40.79771 -73.10346 92 ft 10 kts 315°
2026-04-28 16:46 40.79823 -73.10415 95 ft 10 kts 314°
2026-04-28 16:47 40.79873 -73.10482 94 ft 14 kts 314°
2026-04-28 16:47 40.79967 -73.10605 97 ft 19 kts 315°
2026-04-28 16:47 40.80003 -73.10709 98 ft 9 kts 216°
2026-04-28 16:47 40.79934 -73.10721 96 ft 13 kts 179°
2026-04-28 16:48 40.79824 -73.10721 94 ft 17 kts 180°
2026-04-28 16:48 40.79718 -73.10726 93 ft 13 kts 216°
2026-04-28 16:48 40.79697 -73.10785 93 ft 10 kts 234°
2026-04-28 16:48 40.79692 -73.10800 94 ft 0 kts 271°